www.pogodaiklimat.ru

Погода и климат >> Архив погоды >> Португалия >> Коимбра


ПОГОДА в Коимбре

  • Прогноз погоды в Коимбре
  • Монитор погоды в Коимбре

АРХИВ ПОГОДЫ в Коимбре

Время (UTC), дата Ветер
(напр.,м/с)
 
Видим.   Явления Облачность Т
(С)
Тd
(С)
f
(%)
Тe
(С)
Тes
(С)
Комфортность P
(гПа)
Po
(гПа)
Тmin
(С)
Tmax
(С)
R
(мм)
R24
(мм)
S
(см)
04 12.06 С 2 н/о н/о +9.6 +8.9 95 +8 +8 1016.4 995.8
05 12.06 С 2 н/о н/о +9.2 +8.1 93 +7 +7 1016.3 995.6
06 12.06 СВ 2 н/о н/о +9.9 +7.9 87 +8 +8 1016.3 995.7 +8.8
07 12.06 С 2 н/о н/о +11.5 +8.4 81 +10 +10 1016.5 996.0
08 12.06 н/о н/о +13.8 +9.1 73 1016.4 996.0
09 12.06 С 2 н/о н/о +16.6 +8.0 57 +17 +17 1016.0 995.9
10 12.06
{5}
н/о н/о +17.9 +6.8 48 1015.6 995.5
11 12.06 С 3-6
{7}
н/о н/о +19.5 +6.9 44 +20 +20 1015.3 995.3
12 12.06 С 4-7
{8}
н/о н/о +20.6 +6.6 40 +22 +22 комфорт 1014.5 994.6
13 12.06 -6
{7}
н/о н/о +21.1 +7.0 40 1013.9 994.1
14 12.06 С 5-8
{9}
н/о н/о +21.0 +6.9 40 +22 +22 комфорт 1013.6 993.8
15 12.06 СЗ 6
{11}
н/о н/о +20.3 +7.2 43 +21 +21 комфорт 1013.7 993.8
16 12.06 СЗ 6-11
{11}
н/о н/о +19.2 +7.0 45 +19 +19 1013.8 993.9
17 12.06 СЗ 6-10
{10}
н/о н/о +18.1 +7.3 49 +18 +18 1013.7 993.7
18 12.06 СЗ 4-8
{9}
н/о н/о +17.2 +8.1 55 +17 +17 1013.7 993.7 +21.9
19 12.06 СЗ 5-8
{9}
н/о н/о +15.0 +7.9 62 +14 +14 1013.8 993.6
20 12.06 СЗ 3-6
{9}
н/о н/о +13.3 +8.6 73 +12 +12 1014.3 994.0
21 12.06 СЗ 2-6
{7}
н/о н/о +12.1 +9.1 82 +11 +11 1014.5 994.1
22 12.06 СЗ 1 н/о н/о +11.1 +9.6 90 +11 +11 1014.7 994.2
23 12.06 СЗ 2
{5}
н/о н/о +11.0 +9.9 93 +10 +10 1014.5 994.0
00 13.06 СЗ 1 н/о н/о +10.8 +10.1 95 +10 +10 1014.3 993.8
01 13.06 С 2 н/о н/о +11.0 +10.3 95 +10 +10 1013.9 993.4
02 13.06 н/о н/о +10.8 +10.0 95 1013.6 993.0
03 13.06 СВ 1 н/о н/о +10.4 +10.0 97 +10 +10 1013.3 992.8
04 13.06 С 1 н/о н/о +10.1 +9.6 97 +9 +9 1013.1 992.5
05 13.06 С 2 н/о н/о +10.8 +10.3 97 +9 +9 1013.3 992.8
06 13.06 С 2
{5}
н/о н/о +11.3 +10.6 95 +10 +10 1013.5 993.0 +10.0
07 13.06 С 2
{5}
н/о н/о +12.3 +10.4 88 +11 +11 1013.5 993.0
08 13.06
{5}
н/о н/о +14.1 +10.5 79 1013.7 993.4
09 13.06 С 3
{6}
н/о н/о +16.6 +9.6 63 +16 +16 1013.5 993.4
10 13.06 СЗ 4-6
{6}
н/о н/о +17.5 +7.3 51 +17 +17 1013.3 993.3
11 13.06 СЗ 4
{6}
н/о н/о +17.6 +7.3 51 +17 +17 1013.2 993.1
12 13.06 СЗ 4-7
{8}
н/о н/о +18.4 +7.2 48 +19 +19 1013.0 993.0
13 13.06 С 3-7
{9}
н/о н/о +19.6 +6.6 43 +21 +21 комфорт 1012.7 992.8
14 13.06 СЗ 5-8
{9}
н/о н/о +20.2 +7.6 44 +21 +21 комфорт 1012.6 992.7
15 13.06 СЗ 5-9
{10}
н/о н/о +18.2 +7.9 51 +18 +18 1012.8 992.9
16 13.06 СЗ 5-9
{11}
н/о н/о +19.1 +8.4 50 +20 +20 1012.8 992.9
17 13.06 СЗ 6-9
{10}
н/о н/о +17.4 +7.8 53 +17 +17 1012.9 992.9
18 13.06 СЗ 6-9
{9}
н/о н/о +17.2 +8.5 57 +16 +16 1013.1 993.1 +20.7
19 13.06 СЗ 4-7
{8}
н/о н/о +15.9 +8.4 61 +15 +15 1013.4 993.3
20 13.06 СЗ 4-7
{7}
н/о н/о +13.8 +7.5 66 +12 +12 1014.0 993.7
21 13.06 СЗ 3
{7}
н/о н/о +12.3 +8.9 80 +11 +11 1014.6 994.1
22 13.06 СЗ 2 н/о н/о +11.6 +9.6 88 +10 +10 1015.0 994.5
23 13.06 СЗ 3-5
{6}
н/о н/о +11.7 +10.0 89 +10 +10 1015.0 994.5
00 14.06 СЗ 2
{5}
н/о н/о +11.0 +9.5 90 +10 +10 1014.9 994.3
01 14.06 З 1 н/о н/о +10.4 +9.5 94 +10 +10 1014.6 994.1
02 14.06 СЗ 1 н/о н/о +9.9 +9.4 97 +9 +9 1014.6 994.1
03 14.06 штиль 0 н/о н/о +9.6 +9.1 97 +9 +9 1014.8 994.2
05 14.06 штиль 0 н/о н/о +9.9 +9.5 97 +9 +9 1015.0 994.4
06 14.06 штиль 0 н/о н/о +11.0 +10.8 99 +10 +10 1015.0 994.5
07 14.06 штиль 0 н/о н/о +12.6 +11.7 94 +12 +12 1015.4 995.0
08 14.06 СЗ 1 н/о н/о +13.8 +11.1 84 +14 +14 1015.8 995.5
09 14.06 С 2 н/о н/о +16.9 +11.1 69 +17 +17 1016.1 996.0
10 14.06 н/о н/о +17.1 +9.8 62 1016.4 996.2
11 14.06 З 3-6
{6}
н/о н/о +15.8 +9.6 67 +15 +15 1016.9 996.7
12 14.06 З 2 н/о н/о +16.3 +10.6 69 +16 +16 1017.2 997.0
13 14.06 З 4-8
{8}
н/о н/о +17.9 +9.7 59 +18 +18 1017.2 997.1
14 14.06 З 5-8
{8}
н/о н/о +18.5 +9.2 55 +19 +19 1017.4 997.3
15 14.06 З 5-9
{9}
н/о н/о +18.2 +10.1 59 +18 +18 1017.5 997.4
16 14.06 З 4
{7}
н/о н/о +17.5 +9.6 60 +17 +17 1017.9 997.7
17 14.06 З 4-8
{8}
н/о н/о +18.0 +10.1 60 +18 +18 1017.8 997.7
18 14.06 З 3-6
{7}
н/о н/о +17.1 +10.0 63 +17 +17 1018.2 998.1 +19.8
19 14.06 З 3-6
{6}
н/о н/о +17.0 +9.7 62 +17 +17 1018.9 998.8
20 14.06 З 2
{5}
н/о н/о +14.6 +10.3 75 +14 +14 1019.5 999.2
21 14.06 ЮЗ 1 н/о н/о +13.7 +11.3 85 +14 +14 1020.4 1000.0
22 14.06 Ю 1 н/о н/о +13.2 +11.1 87 +13 +13 1021.0 1000.5
23 14.06 штиль 0 н/о н/о +12.9 +11.2 89 +12 +12 1021.2 1000.7
00 15.06 ЮЗ 1 н/о н/о +12.8 +11.3 91 +13 +13 1021.1 1000.6
01 15.06 Ю 1 н/о н/о +12.5 +11.3 92 +12 +12 1021.1 1000.6
02 15.06 ЮВ 1 н/о н/о +10.8 +10.2 96 +10 +10 1021.2 1000.5
03 15.06 штиль 0 н/о н/о +11.4 +11.2 99 +11 +11 1020.9 1000.3
04 15.06 СВ 1 н/о н/о +11.6 +11.4 99 +11 +11 1020.8 1000.2
05 15.06 СВ 1 н/о н/о +10.3 +10.1 99 +10 +10 1021.3 1000.6
06 15.06 штиль 0 н/о н/о +12.5 +12.5 100 +12 +12 1021.4 1000.9 +10.2
07 15.06 н/о н/о +13.3 +12.7 96 1021.8 1001.3
08 15.06 В 2 н/о н/о +15.8 +12.3 80 +16 +16 1022.1 1001.7
09 15.06 С 2 н/о н/о +16.2 +10.6 69 +16 +16 1022.2 1001.9
10 15.06 С 2 н/о н/о +19.2 +10.9 59 +21 +21 комфорт 1022.1 1002.0
11 15.06
{5}
н/о н/о +21.2 +12.0 56 1021.9 1001.9
12 15.06 С 3
{5}
н/о н/о +21.1 +9.9 49 +23 +23 комфорт 1021.8 1001.8
13 15.06 СЗ 4-6
{7}
н/о н/о +22.4 +11.7 51 +25 +25 комфорт 1021.3 1001.5
14 15.06 З 5-8
{8}
н/о н/о +22.2 +11.9 52 +25 +25 комфорт 1021.1 1001.2
15 15.06 СЗ 5-9
{10}
н/о н/о +20.4 +10.3 52 +22 +22 комфорт 1021.2 1001.2
16 15.06 СЗ 4-8
{10}
н/о н/о +20.9 +9.8 49 +23 +23 комфорт 1020.9 1001.0
17 15.06 СЗ 6
{10}
н/о н/о +20.3 +9.0 48 +21 +21 комфорт 1020.6 1000.6
18 15.06 СЗ 4-8
{9}
н/о н/о +19.2 +9.4 53 +20 +20 1020.8 1000.8 +22.9
19 15.06 С 3-6
{8}
н/о н/о +17.4 +9.7 61 +17 +17 1021.1 1000.9
20 15.06 С 3
{7}
н/о н/о +15.3 +8.4 63 +15 +15 1021.3 1000.9
21 15.06 СЗ 3
{6}
н/о н/о +14.1 +8.5 69 +13 +13 1021.6 1001.1
22 15.06 С 1 н/о н/о +13.0 +9.7 80 +13 +13 1021.8 1001.3
23 15.06 С 1 н/о н/о +12.4 +9.9 85 +12 +12 1021.8 1001.2
00 16.06 С 1 н/о н/о +12.1 +10.1 88 +12 +12 1021.1 1000.5
01 16.06 З 1 н/о н/о +11.3 +9.5 89 +11 +11 1020.8 1000.1
02 16.06 СЗ 1 н/о н/о +10.9 +10.0 94 +10 +10 1020.3 999.7
03 16.06 штиль 0 н/о н/о +10.6 +10.2 97 +10 +10 1019.8 999.1
04 16.06 ЮЗ 2 н/о н/о +10.3 +10.1 99 +9 +9 1019.7 999.0
05 16.06 С 2 н/о н/о +11.5 +11.2 98 +10 +10 1019.7 999.1
06 16.06 С 1 н/о н/о +11.3 +11.3 100 +11 +11 1019.7 999.1 +9.9
07 16.06 С 2 н/о н/о +11.8 +11.8 100 +11 +11 1019.8 999.2
08 16.06 н/о н/о +13.9 +12.9 94 1019.9 999.5
09 16.06 С 1 н/о н/о +15.7 +11.4 76 +16 +16 1019.7 999.4
10 16.06 н/о н/о +17.9 +11.7 67 1019.5 999.4
11 16.06 С 2
{5}
н/о н/о +20.2 +12.3 60 +23 +23 комфорт 1019.0 999.0
12 16.06 СЗ 2-5
{6}
н/о н/о +21.7 +12.6 56 +24 +24 комфорт 1018.9 999.0
13 16.06 СЗ 4-7
{8}
н/о н/о +22.4 +12.1 52 +25 +25 комфорт 1018.5 998.7
14 16.06 З 4-7
{8}
н/о н/о +22.5 +12.3 52 +25 +25 комфорт 1018.3 998.5
15 16.06 З 5-8
{8}
н/о н/о +22.4 +11.9 51 +25 +25 комфорт 1018.2 998.4
16 16.06 СЗ 4-7
{9}
н/о н/о +21.7 +11.8 53 +24 +24 комфорт 1018.1 998.2
17 16.06 СЗ 4-8
{8}
н/о н/о +21.3 +11.7 54 +23 +23 комфорт 1018.4 998.5
18 16.06 СЗ 4-6
{9}
н/о н/о +20.0 +10.8 55 +22 +22 комфорт 1018.9 998.9 +23.4
19 16.06 СЗ 3-5
{6}
н/о н/о +18.1 +11.2 64 +18 +18 1019.3 999.2
20 16.06 СЗ 2
{6}
н/о н/о +15.5 +10.4 72 +15 +15 1019.7 999.4
21 16.06 СЗ 3
{5}
н/о н/о +14.0 +10.0 77 +13 +13 1020.1 999.7
22 16.06 С 1 н/о н/о +13.0 +10.7 86 +13 +13 1020.1 999.7
23 16.06 С 1 н/о н/о +12.5 +10.9 90 +12 +12 1019.9 999.4
00 17.06 С 1 н/о н/о +11.8 +10.9 94 +12 +12 1019.6 999.0
01 17.06 СВ 1 н/о н/о +11.4 +11.0 97 +11 +11 1019.4 998.8
02 17.06 СВ 1 н/о н/о +11.2 +10.8 97 +11 +11 1018.8 998.2
03 17.06 СВ 1 н/о н/о +11.5 +11.3 99 +11 +11 1018.3 997.7
04 17.06 штиль 0 н/о н/о +10.8 +10.6 99 +10 +10 1018.2 997.6
05 17.06 штиль 0 н/о н/о +10.6 +10.3 98 +10 +10 1017.9 997.3
06 17.06 С 1 н/о н/о +11.2 +11.0 99 +11 +11 1018.4 997.8 +10.3
07 17.06 В 1 н/о н/о +11.5 +11.5 100 +11 +11 1018.2 997.6
08 17.06 ЮВ 2 н/о н/о +12.0 +11.9 99 +11 +11 1017.6 997.1
09 17.06 С 1 н/о н/о +14.7 +11.9 83 +15 +15 1017.7 997.4
10 17.06 З 2 н/о н/о +17.8 +12.0 69 +18 +18 1017.2 997.1
11 17.06 Ю 2
{5}
н/о н/о +19.8 +13.2 66 +22 +22 комфорт 1016.7 996.8
12 17.06 С 2
{5}
н/о н/о +21.3 +13.0 59 +24 +24 комфорт 1016.4 996.6
13 17.06 С 1 н/о н/о +21.0 +11.9 56 +24 +24 комфорт 1015.6 995.7
14 17.06 С 2 н/о н/о +22.8 +13.1 54 +26 +26 жарко 1015.0 995.3
15 17.06 С 2 н/о н/о +22.6 +12.8 54 +25 +25 комфорт 1014.4 994.7
16 17.06 СЗ 4 н/о н/о +19.7 +13.4 67 +21 +21 комфорт 1014.7 994.7
17 17.06
{5}
н/о н/о +18.5 +13.0 70 1014.6 994.6
18 17.06 З 3
{5}
н/о н/о +20.1 +12.6 62 +22 +22 комфорт 1014.4 994.6 +24.0
19 17.06 З 2
{6}
н/о н/о +18.6 +11.0 61 +20 +20 1014.1 994.2
20 17.06 З 2 н/о н/о +15.9 +9.7 67 +16 +16 1014.3 994.1
21 17.06 З 1 н/о н/о +14.9 +9.2 69 +15 +15 1014.6 994.3
22 17.06 Ю 1 н/о н/о +14.7 +9.1 69 +15 +15 1014.6 994.4
23 17.06 ЮЗ 1 н/о н/о +14.0 +9.0 72 +14 +14 1014.7 994.4
00 18.06 Ю 2 н/о н/о +13.4 +8.7 73 +13 +13 1014.4 994.0
01 18.06 ЮВ 2 н/о н/о +13.4 +9.3 76 +13 +13 1013.8 993.5
02 18.06 Ю 2
{5}
н/о н/о +13.7 +9.7 77 +13 +13 1013.3 993.0
03 18.06 Ю 5-8
{8}
н/о н/о +14.2 +10.3 77 +13 +13 1012.7 992.5
04 18.06 Ю 6-10
{10}
н/о н/о +15.0 +12.1 83 +13 +13 1012.5 992.3
05 18.06 Ю 6-10
{10}
н/о н/о +15.3 +13.4 88 +14 +14 1012.4 992.2
06 18.06 Ю 6-9
{9}
н/о н/о +14.8 +13.8 94 +13 +13 1012.6 992.4 +13.3
07 18.06 Ю 6-10
{10}
н/о н/о +15.2 +14.3 94 +14 +14 1012.7 992.5
08 18.06 Ю 7-10
{12}
н/о н/о +17.2 +14.9 86 +16 +16 1012.9 992.9
09 18.06 Ю 5-10
{12}
н/о н/о +18.9 +14.9 78 +20 +20 1013.0 993.0
10 18.06 Ю 6-10
{12}
н/о н/о +20.7 +15.9 74 +24 +24 комфорт 1013.1 993.3
11 18.06 Ю 7-12
{12}
н/о н/о +21.3 +15.4 69 +24 +24 комфорт 1012.8 993.0
12 18.06 Ю 6-11
{13}
н/о н/о +20.9 +15.3 70 +24 +24 комфорт 1012.9 993.1
13 18.06 Ю 5-10
{11}
н/о н/о +19.8 +16.4 81 +22 +22 комфорт 1013.0 993.1
14 18.06 Ю 4-8
{10}
н/о н/о +19.6 +16.4 82 +22 +22 комфорт 1013.4 993.5
15 18.06 ЮЗ 4-6
{8}
н/о н/о +18.5 +16.9 90 +19 +19 1013.8 993.8
16 18.06 ЮЗ 3-6
{7}
н/о н/о +19.0 +17.4 90 +21 +21 комфорт 1014.0 994.0
17 18.06 ЮЗ 4-7
{7}
н/о н/о +18.2 +17.5 96 +18 +18 1014.2 994.2 0.9
18 18.06 Ю 3-5
{7}
н/о н/о +18.9 +17.2 90 +20 +20 1014.0 994.1 +21.6 1
19 18.06
{6}
н/о н/о +18.9 +17.3 90 1014.3 994.3
20 18.06
{5}
н/о н/о +17.8 +17.2 96 1014.5 994.5 0.6
21 18.06 ЮЗ 2
{5}
н/о н/о +17.5 +16.9 96 +18 +18 1015.0 994.9
22 18.06 Ю 1
{5}
н/о н/о +17.3 +16.7 96 +18 +18 1015.1 995.0
23 18.06 ЮЗ 2 н/о н/о +17.2 +16.9 98 +18 +18 1015.2 995.1
00 19.06 Ю 2
{5}
н/о н/о +17.0 +16.9 99 +17 +17 1015.2 995.1 3
01 19.06
{5}
н/о н/о +16.8 +16.8 100 1015.0 994.9 0.1
02 19.06 Ю 2
{5}
н/о н/о +16.8 +16.8 100 +17 +17 1015.1 994.9
03 19.06 Ю 2 н/о н/о +16.7 +16.6 99 +17 +17 1014.8 994.6

 

Местоположение метеостанции Коимбра (Португалия): широта 40.15 долгота -8.47 высота над уровнем моря 179 м.

В архиве по умолчанию представлена погода в Коимбре за последнюю неделю. Архивные данные за месяц целиком и за предыдущие месяцы, начиная с января 2011 года, Вы можете получить, выбрав интересующий диапазон дат из раскрывающегося списка и нажав кнопку "Ввод!".


*Определитесь, кто Вы:
робот инопланетянин человек

Внимание! Время в таблицах - всемирное. Для получения местного времени необходимо прибавить поправку, которая равна 0 ч.

Смотрите также архив погоды в соседних городах и на ближайших метеорологических станциях:

Погода в Монте-Реале (Португалия) (50 км)
Погода в Визеу (Португалия) (81 км)
Погода в Обсерватории Penhas Douradas (Португалия) (84 км)
Погода в Оваре (Португалия) (87 км)
Погода в Кастело Бранко (Португалия) (92 км)
Погода в Кабо Карвоейру (Португалия) (119 км)
Погода в Порту (Португалия) (121 км)
Погода в Порталегре (Португалия) (132 км)
Погода в Валенсия-де-Алькантаре (Испания) (132 км)
Погода в Вила-Реале (Португалия) (140 км)

Пояснения к столбцам:

Ветер - указаны скорость ветра в м/с - средняя за 10 мин, порывы в срок и между сроками (в фигурных скобках) и направление, откуда дует ветер: С - северный, СВ - северо-восточный, В - восточный, ЮВ - юго-восточный, Ю - южный, ЮЗ - юго-западный, З - западный, СЗ - северо-западный.
Видимость - горизонтальная дальность видимости в метрах или километрах. При видимости от 1 до 10 км при отсутствии осадков обычно наблюдается дымка, при ухудшении видимости до 1 км и менее - туман. В сухую погоду видимость может ухудшаться дымом, пылью или мглою.
Явления - указаны атмосферные явления, наблюдавшиеся в срок или в последний час перед сроком; фигурными скобками обозначены явления, наблюдавшиеся между сроками (за 1-3 часа до срока); квадратными скобками обозначены град или гололедные отложения с указанием их диаметра в мм.
Облачность - указаны через наклонную черту общая и нижняя облачность в баллах и высота нижней границы облаков в метрах; квадратными скобками обозначены формы облаков: Ci - перистые, Cs - перисто-слоистые, Cc - перисто-кучевые, Ac - высококучевые, As - высокослоистые, Sc - слоисто-кучевые, Ns - слоисто-дождевые, Cu - кучевые, Cb - кучево-дождевые. Подробнее классификацию облаков см. в Атласе облаков (PDF).
T - Температура воздуха - температура, измеренная на высоте 2 м над землей.
Td - Температура точки росы - температура, при понижении до которой содержащийся в воздухе водяной пар достигнет насыщения.
f - Относительная влажность воздуха - влажноcть воздуха, измеренная на высоте 2 м над землей.
Te - Эффективная температура - температура, которую ощущает одетый по сезону человек в тени. Характеристика душности погоды. При расчете учитывается влияние влажности воздуха и скорости ветра на теплоощущения человека.
Tes - Эффективная температура на солнце - температура, которую ощущает человек, с поправкой на солнечный нагрев. Характеристика знойности погоды. Зависит от высоты солнца над горизонтом, облачности и скорости ветра. Ночью, в пасмурную погоду, а также при ветре 12 м/с и более поправка равна нулю.
P - Атмосферное давление - приведенное к уровню моря атмосферное давление.
Po - Атмосферное давление - измеренное на уровне метеостанции атмосферное давление.
Tmin - Минимальная температура - минимум температуры воздуха на высоте 2 м над землей.
Tmax - Максимальная температура - максимум температуры воздуха на высоте 2 м над землей.
R - Количество осадков - Количество выпавших осадков за период времени, мм. При наведении курсора мыши на число - период времени, за который выпало указанное количество осадков.
R24 - Количество осадков - Количество выпавших осадков за 24 часа, мм.
S - Снежный покров - Высота снежного покрова, см. При наведении курсора мыши на число - состояние снежного покрова и степень покрытия местности в баллах.